#datetime,building,power
2023-10-31T00:00:00,atd,18.39
2023-10-31T00:01:00,atd,21.43
2023-10-31T00:02:00,atd,23.14
2023-10-31T00:03:00,atd,20.44
2023-10-31T00:04:00,atd,21.95
2023-10-31T00:05:00,atd,26.89
2023-10-31T00:06:00,atd,18.41
2023-10-31T00:07:00,atd,18.91
2023-10-31T00:08:00,atd,21.77
2023-10-31T00:09:00,atd,22.50
2023-10-31T00:10:00,atd,25.60
2023-10-31T00:11:00,atd,23.98
2023-10-31T00:12:00,atd,20.85
2023-10-31T00:13:00,atd,22.94
2023-10-31T00:14:00,atd,37.13
2023-10-31T00:15:00,atd,25.16
2023-10-31T00:16:00,atd,21.63
2023-10-31T00:17:00,atd,24.67
2023-10-31T00:18:00,atd,19.95
2023-10-31T00:19:00,atd,19.70
2023-10-31T00:20:00,atd,25.36
2023-10-31T00:21:00,atd,20.36
2023-10-31T00:22:00,atd,19.98
2023-10-31T00:23:00,atd,21.04
2023-10-31T00:24:00,atd,19.49
2023-10-31T00:25:00,atd,23.40
2023-10-31T00:26:00,atd,21.98
2023-10-31T00:27:00,atd,21.57
2023-10-31T00:28:00,atd,24.06
2023-10-31T00:29:00,atd,34.74
2023-10-31T00:30:00,atd,28.96
2023-10-31T00:31:00,atd,30.13
2023-10-31T00:32:00,atd,19.56
2023-10-31T00:33:00,atd,19.64
2023-10-31T00:34:00,atd,30.37
2023-10-31T00:35:00,atd,19.93
2023-10-31T00:36:00,atd,20.23
2023-10-31T00:37:00,atd,18.20
2023-10-31T00:38:00,atd,21.11
2023-10-31T00:39:00,atd,18.72
2023-10-31T00:40:00,atd,22.19
2023-10-31T00:41:00,atd,18.60
2023-10-31T00:42:00,atd,21.42
2023-10-31T00:43:00,atd,23.85
2023-10-31T00:44:00,atd,22.23
2023-10-31T00:45:00,atd,25.15
2023-10-31T00:46:00,atd,19.93
2023-10-31T00:47:00,atd,21.13
2023-10-31T00:48:00,atd,22.70
2023-10-31T00:49:00,atd,20.43
2023-10-31T00:50:00,atd,20.45
2023-10-31T00:51:00,atd,20.19
2023-10-31T00:52:00,atd,20.60
2023-10-31T00:53:00,atd,23.29
2023-10-31T00:54:00,atd,35.97
2023-10-31T00:55:00,atd,20.86
2023-10-31T00:56:00,atd,22.58
2023-10-31T00:57:00,atd,23.75
2023-10-31T00:58:00,atd,32.16
2023-10-31T00:59:00,atd,26.03
2023-10-31T01:00:00,atd,28.28
2023-10-31T01:01:00,atd,27.62
2023-10-31T01:02:00,atd,25.84
2023-10-31T01:03:00,atd,22.94
2023-10-31T01:04:00,atd,25.78
2023-10-31T01:05:00,atd,22.23
2023-10-31T01:06:00,atd,25.40
2023-10-31T01:07:00,atd,21.18
2023-10-31T01:08:00,atd,22.03
2023-10-31T01:09:00,atd,36.14
2023-10-31T01:10:00,atd,33.14
2023-10-31T01:11:00,atd,30.43
2023-10-31T01:12:00,atd,30.52
2023-10-31T01:13:00,atd,22.87
2023-10-31T01:14:00,atd,21.05
2023-10-31T01:15:00,atd,33.95
2023-10-31T01:16:00,atd,26.91
2023-10-31T01:17:00,atd,26.64
2023-10-31T01:18:00,atd,21.29
2023-10-31T01:19:00,atd,22.77
2023-10-31T01:20:00,atd,22.49
2023-10-31T01:21:00,atd,24.38
2023-10-31T01:22:00,atd,24.48
2023-10-31T01:23:00,atd,23.35
2023-10-31T01:24:00,atd,23.18
2023-10-31T01:25:00,atd,19.91
2023-10-31T01:26:00,atd,19.49
2023-10-31T01:27:00,atd,17.77
2023-10-31T01:28:00,atd,18.92
2023-10-31T01:29:00,atd,18.14
2023-10-31T01:30:00,atd,20.21
2023-10-31T01:31:00,atd,21.55
2023-10-31T01:32:00,atd,21.11
2023-10-31T01:33:00,atd,20.09
2023-10-31T01:34:00,atd,23.25
2023-10-31T01:35:00,atd,32.29
2023-10-31T01:36:00,atd,21.71
2023-10-31T01:37:00,atd,20.07
2023-10-31T01:38:00,atd,20.23
2023-10-31T01:39:00,atd,19.83
2023-10-31T01:40:00,atd,20.45
2023-10-31T01:41:00,atd,20.88
2023-10-31T01:42:00,atd,17.49
2023-10-31T01:43:00,atd,16.74
2023-10-31T01:44:00,atd,18.94
2023-10-31T01:45:00,atd,17.62
2023-10-31T01:46:00,atd,20.27
2023-10-31T01:47:00,atd,21.51
2023-10-31T01:48:00,atd,25.16
2023-10-31T01:49:00,atd,20.14
2023-10-31T01:50:00,atd,23.02
2023-10-31T01:51:00,atd,19.97
2023-10-31T01:52:00,atd,20.14
2023-10-31T01:53:00,atd,16.43
2023-10-31T01:54:00,atd,21.01
2023-10-31T01:55:00,atd,30.76
2023-10-31T01:56:00,atd,17.64
2023-10-31T01:57:00,atd,19.04
2023-10-31T01:58:00,atd,24.10
2023-10-31T01:59:00,atd,22.58
2023-10-31T02:00:00,atd,27.18
2023-10-31T02:01:00,atd,22.65
2023-10-31T02:02:00,atd,25.19
2023-10-31T02:03:00,atd,24.99
2023-10-31T02:04:00,atd,20.68
2023-10-31T02:05:00,atd,23.58
2023-10-31T02:06:00,atd,20.24
2023-10-31T02:07:00,atd,24.88
2023-10-31T02:08:00,atd,24.12
2023-10-31T02:09:00,atd,25.03
2023-10-31T02:10:00,atd,22.67
2023-10-31T02:11:00,atd,21.72
2023-10-31T02:12:00,atd,25.10
2023-10-31T02:13:00,atd,21.99
2023-10-31T02:14:00,atd,21.13
2023-10-31T02:15:00,atd,19.05
2023-10-31T02:16:00,atd,21.74
2023-10-31T02:17:00,atd,19.21
2023-10-31T02:18:00,atd,21.20
2023-10-31T02:19:00,atd,22.88
2023-10-31T02:20:00,atd,26.12
2023-10-31T02:21:00,atd,25.27
2023-10-31T02:22:00,atd,24.37
2023-10-31T02:23:00,atd,26.95
2023-10-31T02:24:00,atd,27.01
2023-10-31T02:25:00,atd,23.09
2023-10-31T02:26:00,atd,23.71
2023-10-31T02:27:00,atd,22.54
2023-10-31T02:28:00,atd,21.28
2023-10-31T02:29:00,atd,20.73
2023-10-31T02:30:00,atd,20.33
2023-10-31T02:31:00,atd,23.91
2023-10-31T02:32:00,atd,23.56
2023-10-31T02:33:00,atd,19.64
2023-10-31T02:34:00,atd,21.47
2023-10-31T02:35:00,atd,20.95
2023-10-31T02:36:00,atd,31.79
2023-10-31T02:37:00,atd,19.57
2023-10-31T02:38:00,atd,28.04
2023-10-31T02:39:00,atd,27.96
2023-10-31T02:40:00,atd,23.05
2023-10-31T02:41:00,atd,25.06
2023-10-31T02:42:00,atd,25.67
2023-10-31T02:43:00,atd,21.07
2023-10-31T02:44:00,atd,21.77
2023-10-31T02:45:00,atd,21.46
2023-10-31T02:46:00,atd,21.86
2023-10-31T02:47:00,atd,18.41
2023-10-31T02:48:00,atd,21.72
2023-10-31T02:49:00,atd,19.54
2023-10-31T02:50:00,atd,26.05
2023-10-31T02:51:00,atd,23.04
2023-10-31T02:52:00,atd,22.02
2023-10-31T02:53:00,atd,20.53
2023-10-31T02:54:00,atd,20.09
2023-10-31T02:55:00,atd,21.05
2023-10-31T02:56:00,atd,32.84
2023-10-31T02:57:00,atd,22.46
2023-10-31T02:58:00,atd,22.84
2023-10-31T02:59:00,atd,20.90
2023-10-31T03:00:00,atd,20.47
2023-10-31T03:01:00,atd,24.86
2023-10-31T03:02:00,atd,21.98
2023-10-31T03:03:00,atd,22.66
2023-10-31T03:04:00,atd,20.72
2023-10-31T03:05:00,atd,18.92
2023-10-31T03:06:00,atd,23.72
2023-10-31T03:07:00,atd,20.03
2023-10-31T03:08:00,atd,18.89
2023-10-31T03:09:00,atd,19.26
2023-10-31T03:10:00,atd,21.62
2023-10-31T03:11:00,atd,21.13
2023-10-31T03:12:00,atd,22.78
2023-10-31T03:13:00,atd,25.89
2023-10-31T03:14:00,atd,24.66
2023-10-31T03:15:00,atd,25.11
2023-10-31T03:16:00,atd,22.14
2023-10-31T03:17:00,atd,35.16
2023-10-31T03:18:00,atd,19.37
2023-10-31T03:19:00,atd,21.24
2023-10-31T03:20:00,atd,17.90
2023-10-31T03:21:00,atd,19.65
2023-10-31T03:22:00,atd,22.62
2023-10-31T03:23:00,atd,19.65
2023-10-31T03:24:00,atd,18.91
2023-10-31T03:25:00,atd,21.06
2023-10-31T03:26:00,atd,20.77
2023-10-31T03:27:00,atd,24.54
2023-10-31T03:28:00,atd,25.66
2023-10-31T03:29:00,atd,23.17
2023-10-31T03:30:00,atd,21.55
2023-10-31T03:31:00,atd,21.64
2023-10-31T03:32:00,atd,20.93
2023-10-31T03:33:00,atd,21.42
2023-10-31T03:34:00,atd,21.52
2023-10-31T03:35:00,atd,20.31
2023-10-31T03:36:00,atd,31.27
2023-10-31T03:37:00,atd,26.98
2023-10-31T03:38:00,atd,40.32
2023-10-31T03:39:00,atd,27.71
2023-10-31T03:40:00,atd,20.10
2023-10-31T03:41:00,atd,19.57
2023-10-31T03:42:00,atd,23.98
2023-10-31T03:43:00,atd,27.93
2023-10-31T03:44:00,atd,23.58
2023-10-31T03:45:00,atd,20.01
2023-10-31T03:46:00,atd,19.93
2023-10-31T03:47:00,atd,19.55
2023-10-31T03:48:00,atd,18.74
2023-10-31T03:49:00,atd,18.53
2023-10-31T03:50:00,atd,20.31
2023-10-31T03:51:00,atd,21.60
2023-10-31T03:52:00,atd,18.74
2023-10-31T03:53:00,atd,19.25
2023-10-31T03:54:00,atd,20.17
2023-10-31T03:55:00,atd,19.28
2023-10-31T03:56:00,atd,19.73
2023-10-31T03:57:00,atd,21.78
2023-10-31T03:58:00,atd,31.79
2023-10-31T03:59:00,atd,24.30
2023-10-31T04:00:00,atd,23.75
2023-10-31T04:01:00,atd,26.79
2023-10-31T04:02:00,atd,26.59
2023-10-31T04:03:00,atd,31.64
2023-10-31T04:04:00,atd,22.58
2023-10-31T04:05:00,atd,21.87
2023-10-31T04:06:00,atd,21.31
2023-10-31T04:07:00,atd,24.18
2023-10-31T04:08:00,atd,22.51
2023-10-31T04:09:00,atd,21.69
2023-10-31T04:10:00,atd,17.90
2023-10-31T04:11:00,atd,19.09
2023-10-31T04:12:00,atd,21.28
2023-10-31T04:13:00,atd,20.52
2023-10-31T04:14:00,atd,20.30
2023-10-31T04:15:00,atd,22.73
2023-10-31T04:16:00,atd,24.03
2023-10-31T04:17:00,atd,24.21
2023-10-31T04:18:00,atd,34.17
2023-10-31T04:19:00,atd,25.95
2023-10-31T04:20:00,atd,26.57
2023-10-31T04:21:00,atd,22.63
2023-10-31T04:22:00,atd,24.41
2023-10-31T04:23:00,atd,26.98
2023-10-31T04:24:00,atd,22.70
2023-10-31T04:25:00,atd,25.34
2023-10-31T04:26:00,atd,25.45
2023-10-31T04:27:00,atd,24.31
2023-10-31T04:28:00,atd,25.25
2023-10-31T04:29:00,atd,25.66
2023-10-31T04:30:00,atd,25.62
2023-10-31T04:31:00,atd,22.21
2023-10-31T04:32:00,atd,27.58
2023-10-31T04:33:00,atd,26.82
2023-10-31T04:34:00,atd,27.25
2023-10-31T04:35:00,atd,26.02
2023-10-31T04:36:00,atd,19.77
2023-10-31T04:37:00,atd,19.29
2023-10-31T04:38:00,atd,30.48
2023-10-31T04:39:00,atd,17.10
2023-10-31T04:40:00,atd,19.96
2023-10-31T04:41:00,atd,22.13
2023-10-31T04:42:00,atd,22.23
2023-10-31T04:43:00,atd,37.29
2023-10-31T04:44:00,atd,34.65
2023-10-31T04:45:00,atd,32.73
2023-10-31T04:46:00,atd,30.61
2023-10-31T04:47:00,atd,20.16
2023-10-31T04:48:00,atd,19.61
2023-10-31T04:49:00,atd,17.48
2023-10-31T04:50:00,atd,20.31
2023-10-31T04:51:00,atd,20.55
2023-10-31T04:52:00,atd,19.83
2023-10-31T04:53:00,atd,19.51
2023-10-31T04:54:00,atd,22.70
2023-10-31T04:55:00,atd,24.72
2023-10-31T04:56:00,atd,22.74
2023-10-31T04:57:00,atd,23.22
2023-10-31T04:58:00,atd,36.39
2023-10-31T04:59:00,atd,19.65
2023-10-31T05:00:00,atd,20.92
2023-10-31T05:01:00,atd,19.67
2023-10-31T05:02:00,atd,22.27
2023-10-31T05:03:00,atd,21.51
2023-10-31T05:04:00,atd,23.67
2023-10-31T05:05:00,atd,23.42
2023-10-31T05:06:00,atd,23.44
2023-10-31T05:07:00,atd,23.17
2023-10-31T05:08:00,atd,22.21
2023-10-31T05:09:00,atd,21.78
2023-10-31T05:10:00,atd,22.87
2023-10-31T05:11:00,atd,18.48
2023-10-31T05:12:00,atd,21.32
2023-10-31T05:13:00,atd,19.70
2023-10-31T05:14:00,atd,18.95
2023-10-31T05:15:00,atd,17.98
2023-10-31T05:16:00,atd,19.52
2023-10-31T05:17:00,atd,21.59
2023-10-31T05:18:00,atd,18.12
2023-10-31T05:19:00,atd,21.35
2023-10-31T05:20:00,atd,19.97
2023-10-31T05:21:00,atd,21.21
2023-10-31T05:22:00,atd,27.45
2023-10-31T05:23:00,atd,31.59
2023-10-31T05:24:00,atd,27.66
2023-10-31T05:25:00,atd,26.92
2023-10-31T05:26:00,atd,26.94
2023-10-31T05:27:00,atd,23.21
2023-10-31T05:28:00,atd,32.83
2023-10-31T05:29:00,atd,33.23
2023-10-31T05:30:00,atd,35.60
2023-10-31T05:31:00,atd,35.79
2023-10-31T05:32:00,atd,35.96
2023-10-31T05:33:00,atd,37.88
2023-10-31T05:34:00,atd,39.17
2023-10-31T05:35:00,atd,37.95
2023-10-31T05:36:00,atd,37.34
2023-10-31T05:37:00,atd,40.64
2023-10-31T05:38:00,atd,35.84
2023-10-31T05:39:00,atd,36.29
2023-10-31T05:40:00,atd,36.90
2023-10-31T05:41:00,atd,38.42
2023-10-31T05:42:00,atd,42.16
2023-10-31T05:43:00,atd,35.58
2023-10-31T05:44:00,atd,37.59
2023-10-31T05:45:00,atd,36.37
2023-10-31T05:46:00,atd,35.92
2023-10-31T05:47:00,atd,34.86
2023-10-31T05:48:00,atd,38.70
2023-10-31T05:49:00,atd,38.53
2023-10-31T05:50:00,atd,37.49
2023-10-31T05:51:00,atd,37.25
2023-10-31T05:52:00,atd,35.66
2023-10-31T05:53:00,atd,35.50
2023-10-31T05:54:00,atd,40.19
2023-10-31T05:55:00,atd,38.11
2023-10-31T05:56:00,atd,39.10
2023-10-31T05:57:00,atd,36.81
2023-10-31T05:58:00,atd,35.77
2023-10-31T05:59:00,atd,41.63
2023-10-31T06:00:00,atd,43.59
2023-10-31T06:01:00,atd,40.73
2023-10-31T06:02:00,atd,41.29
2023-10-31T06:03:00,atd,42.51
2023-10-31T06:04:00,atd,39.78
2023-10-31T06:05:00,atd,37.86
2023-10-31T06:06:00,atd,34.65
2023-10-31T06:07:00,atd,36.74
2023-10-31T06:08:00,atd,38.61
2023-10-31T06:09:00,atd,52.07
2023-10-31T06:10:00,atd,50.97
2023-10-31T06:11:00,atd,51.64
2023-10-31T06:12:00,atd,39.97
2023-10-31T06:13:00,atd,40.55
2023-10-31T06:14:00,atd,39.04
2023-10-31T06:15:00,atd,39.24
2023-10-31T06:16:00,atd,37.15
2023-10-31T06:17:00,atd,41.62
2023-10-31T06:18:00,atd,38.91
2023-10-31T06:19:00,atd,49.43
2023-10-31T06:20:00,atd,36.59
2023-10-31T06:21:00,atd,37.25
2023-10-31T06:22:00,atd,39.19
2023-10-31T06:23:00,atd,37.59
2023-10-31T06:24:00,atd,37.46
2023-10-31T06:25:00,atd,39.63
2023-10-31T06:26:00,atd,39.61
2023-10-31T06:27:00,atd,39.43
2023-10-31T06:28:00,atd,39.12
2023-10-31T06:29:00,atd,40.76
2023-10-31T06:30:00,atd,41.57
2023-10-31T06:31:00,atd,41.82
2023-10-31T06:32:00,atd,44.03
2023-10-31T06:33:00,atd,40.95
2023-10-31T06:34:00,atd,48.34
2023-10-31T06:35:00,atd,45.50
2023-10-31T06:36:00,atd,44.34
2023-10-31T06:37:00,atd,41.71
2023-10-31T06:38:00,atd,39.50
2023-10-31T06:39:00,atd,39.44
2023-10-31T06:40:00,atd,40.35
2023-10-31T06:41:00,atd,43.38
2023-10-31T06:42:00,atd,38.15
2023-10-31T06:43:00,atd,35.97
2023-10-31T06:44:00,atd,39.37
2023-10-31T06:45:00,atd,35.71
2023-10-31T06:46:00,atd,37.10
2023-10-31T06:47:00,atd,37.55
2023-10-31T06:48:00,atd,42.63
2023-10-31T06:49:00,atd,41.39
2023-10-31T06:50:00,atd,39.39
2023-10-31T06:51:00,atd,39.78
2023-10-31T06:52:00,atd,41.61
2023-10-31T06:53:00,atd,38.52
2023-10-31T06:54:00,atd,37.63
2023-10-31T06:55:00,atd,50.54
2023-10-31T06:56:00,atd,41.51
2023-10-31T06:57:00,atd,40.16
2023-10-31T06:58:00,atd,40.44
2023-10-31T06:59:00,atd,41.82
2023-10-31T07:00:00,atd,39.88
2023-10-31T07:01:00,atd,48.83
2023-10-31T07:02:00,atd,44.88
2023-10-31T07:03:00,atd,45.83
2023-10-31T07:04:00,atd,46.60
2023-10-31T07:05:00,atd,46.02
2023-10-31T07:06:00,atd,39.96
2023-10-31T07:07:00,atd,54.87
2023-10-31T07:08:00,atd,40.17
2023-10-31T07:09:00,atd,41.62
2023-10-31T07:10:00,atd,42.37
2023-10-31T07:11:00,atd,38.44
2023-10-31T07:12:00,atd,40.09
2023-10-31T07:13:00,atd,41.91
2023-10-31T07:14:00,atd,40.20
2023-10-31T07:15:00,atd,41.43
2023-10-31T07:16:00,atd,34.83
2023-10-31T07:17:00,atd,33.65
2023-10-31T07:18:00,atd,36.71
2023-10-31T07:19:00,atd,47.65
2023-10-31T07:20:00,atd,42.63
2023-10-31T07:21:00,atd,39.12
2023-10-31T07:22:00,atd,34.32
2023-10-31T07:23:00,atd,37.11
2023-10-31T07:24:00,atd,38.45
2023-10-31T07:25:00,atd,35.45
2023-10-31T07:26:00,atd,35.74
2023-10-31T07:27:00,atd,35.95
2023-10-31T07:28:00,atd,36.43
2023-10-31T07:29:00,atd,39.29
2023-10-31T07:30:00,atd,48.06
2023-10-31T07:31:00,atd,35.52
2023-10-31T07:32:00,atd,40.96
2023-10-31T07:33:00,atd,40.00
2023-10-31T07:34:00,atd,39.88
2023-10-31T07:35:00,atd,37.06
2023-10-31T07:36:00,atd,49.71
2023-10-31T07:37:00,atd,49.18
2023-10-31T07:38:00,atd,37.38
2023-10-31T07:39:00,atd,52.72
2023-10-31T07:40:00,atd,49.96
2023-10-31T07:41:00,atd,42.91
2023-10-31T07:42:00,atd,41.61
2023-10-31T07:43:00,atd,42.32
2023-10-31T07:44:00,atd,57.95
2023-10-31T07:45:00,atd,38.76
2023-10-31T07:46:00,atd,42.01
2023-10-31T07:47:00,atd,44.18
2023-10-31T07:48:00,atd,38.36
2023-10-31T07:49:00,atd,38.91
2023-10-31T07:50:00,atd,41.07
2023-10-31T07:51:00,atd,41.47
2023-10-31T07:52:00,atd,41.87
2023-10-31T07:53:00,atd,50.31
2023-10-31T07:54:00,atd,41.77
2023-10-31T07:55:00,atd,41.01
2023-10-31T07:56:00,atd,41.35
2023-10-31T07:57:00,atd,43.17
2023-10-31T07:58:00,atd,38.59
2023-10-31T07:59:00,atd,38.02
2023-10-31T08:00:00,atd,39.05
2023-10-31T08:01:00,atd,37.52
2023-10-31T08:02:00,atd,39.83
2023-10-31T08:03:00,atd,45.15
2023-10-31T08:04:00,atd,40.29
2023-10-31T08:05:00,atd,39.66
2023-10-31T08:06:00,atd,51.63
2023-10-31T08:07:00,atd,40.88
2023-10-31T08:08:00,atd,45.45
2023-10-31T08:09:00,atd,43.19
2023-10-31T08:10:00,atd,40.15
2023-10-31T08:11:00,atd,37.68
2023-10-31T08:12:00,atd,39.42
2023-10-31T08:13:00,atd,38.10
2023-10-31T08:14:00,atd,39.97
2023-10-31T08:15:00,atd,37.29
2023-10-31T08:16:00,atd,48.57
2023-10-31T08:17:00,atd,42.01
2023-10-31T08:18:00,atd,44.56
2023-10-31T08:19:00,atd,47.72
2023-10-31T08:20:00,atd,44.83
2023-10-31T08:21:00,atd,42.27
2023-10-31T08:22:00,atd,43.89
2023-10-31T08:23:00,atd,44.51
2023-10-31T08:24:00,atd,65.54
2023-10-31T08:25:00,atd,54.37
2023-10-31T08:26:00,atd,53.29
2023-10-31T08:27:00,atd,61.81
2023-10-31T08:28:00,atd,61.78
2023-10-31T08:29:00,atd,64.44
2023-10-31T08:30:00,atd,60.45
2023-10-31T08:31:00,atd,60.57
2023-10-31T08:32:00,atd,56.38
2023-10-31T08:33:00,atd,55.09
2023-10-31T08:34:00,atd,60.33
2023-10-31T08:35:00,atd,61.97
2023-10-31T08:36:00,atd,63.56
2023-10-31T08:37:00,atd,59.76
2023-10-31T08:38:00,atd,58.77
2023-10-31T08:39:00,atd,63.20
2023-10-31T08:40:00,atd,66.00
2023-10-31T08:41:00,atd,68.62
2023-10-31T08:42:00,atd,84.81
2023-10-31T08:43:00,atd,71.23
2023-10-31T08:44:00,atd,72.02
2023-10-31T08:45:00,atd,71.54
2023-10-31T08:46:00,atd,72.67
2023-10-31T08:47:00,atd,75.83
2023-10-31T08:48:00,atd,72.13
2023-10-31T08:49:00,atd,70.51
2023-10-31T08:50:00,atd,62.31
2023-10-31T08:51:00,atd,64.73
2023-10-31T08:52:00,atd,64.47
2023-10-31T08:53:00,atd,66.14
2023-10-31T08:54:00,atd,71.31
2023-10-31T08:55:00,atd,75.72
2023-10-31T08:56:00,atd,69.86
2023-10-31T08:57:00,atd,72.33
2023-10-31T08:58:00,atd,67.22
2023-10-31T08:59:00,atd,63.30
2023-10-31T09:00:00,atd,58.93
2023-10-31T09:01:00,atd,55.35
2023-10-31T09:02:00,atd,58.38
2023-10-31T09:03:00,atd,66.49
2023-10-31T09:04:00,atd,66.56
2023-10-31T09:05:00,atd,66.24
2023-10-31T09:06:00,atd,70.64
2023-10-31T09:07:00,atd,74.89
2023-10-31T09:08:00,atd,67.96
2023-10-31T09:09:00,atd,66.41
2023-10-31T09:10:00,atd,69.09
2023-10-31T09:11:00,atd,68.97
2023-10-31T09:12:00,atd,69.20
2023-10-31T09:13:00,atd,73.98
2023-10-31T09:14:00,atd,77.05
2023-10-31T09:15:00,atd,72.51
2023-10-31T09:16:00,atd,71.90
2023-10-31T09:17:00,atd,100.30
2023-10-31T09:18:00,atd,57.39
2023-10-31T09:19:00,atd,64.86
2023-10-31T09:20:00,atd,64.92
2023-10-31T09:21:00,atd,71.44
2023-10-31T09:22:00,atd,70.22
2023-10-31T09:23:00,atd,73.36
2023-10-31T09:24:00,atd,74.77
2023-10-31T09:25:00,atd,72.73
2023-10-31T09:26:00,atd,82.05
2023-10-31T09:27:00,atd,74.70
2023-10-31T09:28:00,atd,68.08
2023-10-31T09:29:00,atd,73.24
2023-10-31T09:30:00,atd,65.54
2023-10-31T09:31:00,atd,67.60
2023-10-31T09:32:00,atd,74.97
2023-10-31T09:33:00,atd,80.38
2023-10-31T09:34:00,atd,80.73
2023-10-31T09:35:00,atd,77.48
2023-10-31T09:36:00,atd,86.61
2023-10-31T09:37:00,atd,79.66
2023-10-31T09:38:00,atd,78.37
2023-10-31T09:39:00,atd,76.59
2023-10-31T09:40:00,atd,71.56
2023-10-31T09:41:00,atd,71.13
2023-10-31T09:42:00,atd,76.05
2023-10-31T09:43:00,atd,70.94
2023-10-31T09:44:00,atd,80.17
2023-10-31T09:45:00,atd,76.05
2023-10-31T09:46:00,atd,71.64
2023-10-31T09:47:00,atd,92.45
2023-10-31T09:48:00,atd,76.72
2023-10-31T09:49:00,atd,78.04
2023-10-31T09:50:00,atd,74.13
2023-10-31T09:51:00,atd,80.87
2023-10-31T09:52:00,atd,75.42
2023-10-31T09:53:00,atd,74.43
2023-10-31T09:54:00,atd,69.23
2023-10-31T09:55:00,atd,80.75
2023-10-31T09:56:00,atd,72.10
2023-10-31T09:57:00,atd,94.69
2023-10-31T09:58:00,atd,72.33
2023-10-31T09:59:00,atd,74.40
2023-10-31T10:00:00,atd,84.73
2023-10-31T10:01:00,atd,77.50
2023-10-31T10:02:00,atd,69.95
2023-10-31T10:03:00,atd,71.41
2023-10-31T10:04:00,atd,65.05
2023-10-31T10:05:00,atd,84.42
2023-10-31T10:06:00,atd,75.57
2023-10-31T10:07:00,atd,67.10
2023-10-31T10:08:00,atd,56.95
2023-10-31T10:09:00,atd,59.67
2023-10-31T10:10:00,atd,65.38
2023-10-31T10:11:00,atd,73.00
2023-10-31T10:12:00,atd,64.12
2023-10-31T10:13:00,atd,60.65
2023-10-31T10:14:00,atd,56.60
2023-10-31T10:15:00,atd,66.36
2023-10-31T10:16:00,atd,68.88
2023-10-31T10:17:00,atd,69.22
2023-10-31T10:18:00,atd,73.40
2023-10-31T10:19:00,atd,66.23
2023-10-31T10:20:00,atd,72.25
2023-10-31T10:21:00,atd,73.42
2023-10-31T10:22:00,atd,63.67
2023-10-31T10:23:00,atd,68.78
2023-10-31T10:24:00,atd,62.84
2023-10-31T10:25:00,atd,62.37
2023-10-31T10:26:00,atd,67.32
2023-10-31T10:27:00,atd,70.60
2023-10-31T10:28:00,atd,71.61
2023-10-31T10:29:00,atd,63.69
2023-10-31T10:30:00,atd,63.84
2023-10-31T10:31:00,atd,53.79
2023-10-31T10:32:00,atd,56.31
2023-10-31T10:33:00,atd,60.05
2023-10-31T10:34:00,atd,60.27
2023-10-31T10:35:00,atd,60.07
2023-10-31T10:36:00,atd,56.94
2023-10-31T10:37:00,atd,63.77
2023-10-31T10:38:00,atd,70.76
2023-10-31T10:39:00,atd,62.77
2023-10-31T10:40:00,atd,58.22
2023-10-31T10:41:00,atd,56.85
2023-10-31T10:42:00,atd,64.41
2023-10-31T10:43:00,atd,74.70
2023-10-31T10:44:00,atd,61.37
2023-10-31T10:45:00,atd,59.37
2023-10-31T10:46:00,atd,60.08
2023-10-31T10:47:00,atd,61.86
2023-10-31T10:48:00,atd,60.40
2023-10-31T10:49:00,atd,67.21
2023-10-31T10:50:00,atd,65.33
2023-10-31T10:51:00,atd,58.77
2023-10-31T10:52:00,atd,59.29
2023-10-31T10:53:00,atd,51.76
2023-10-31T10:54:00,atd,76.67
2023-10-31T10:55:00,atd,62.55
2023-10-31T10:56:00,atd,61.26
2023-10-31T10:57:00,atd,61.64
2023-10-31T10:58:00,atd,58.28
2023-10-31T10:59:00,atd,55.42
2023-10-31T11:00:00,atd,65.08
2023-10-31T11:01:00,atd,76.46
2023-10-31T11:02:00,atd,65.15
2023-10-31T11:03:00,atd,57.79
2023-10-31T11:04:00,atd,58.10
2023-10-31T11:05:00,atd,73.59
2023-10-31T11:06:00,atd,72.25
2023-10-31T11:07:00,atd,56.37
2023-10-31T11:08:00,atd,62.31
2023-10-31T11:09:00,atd,59.83
2023-10-31T11:10:00,atd,54.64
2023-10-31T11:11:00,atd,59.17
2023-10-31T11:12:00,atd,63.91
2023-10-31T11:13:00,atd,69.72
2023-10-31T11:14:00,atd,63.19
2023-10-31T11:15:00,atd,68.74
2023-10-31T11:16:00,atd,63.12
2023-10-31T11:17:00,atd,58.92
2023-10-31T11:18:00,atd,56.83
2023-10-31T11:19:00,atd,62.07
2023-10-31T11:20:00,atd,56.94
2023-10-31T11:21:00,atd,58.19
2023-10-31T11:22:00,atd,59.59
2023-10-31T11:23:00,atd,67.80
2023-10-31T11:24:00,atd,62.91
2023-10-31T11:25:00,atd,57.56
2023-10-31T11:26:00,atd,62.78
2023-10-31T11:27:00,atd,59.09
2023-10-31T11:28:00,atd,65.00
2023-10-31T11:29:00,atd,67.44
2023-10-31T11:30:00,atd,67.66
2023-10-31T11:31:00,atd,63.85
2023-10-31T11:32:00,atd,67.78
2023-10-31T11:33:00,atd,67.18
2023-10-31T11:34:00,atd,70.72
2023-10-31T11:35:00,atd,72.20
2023-10-31T11:36:00,atd,73.60
2023-10-31T11:37:00,atd,87.59
2023-10-31T11:38:00,atd,71.54
2023-10-31T11:39:00,atd,67.35
2023-10-31T11:40:00,atd,67.14
2023-10-31T11:41:00,atd,64.31
2023-10-31T11:42:00,atd,70.18
2023-10-31T11:43:00,atd,76.53
2023-10-31T11:44:00,atd,69.98
2023-10-31T11:45:00,atd,73.80
2023-10-31T11:46:00,atd,76.28
2023-10-31T11:47:00,atd,72.33
2023-10-31T11:48:00,atd,72.70
2023-10-31T11:49:00,atd,67.79
2023-10-31T11:50:00,atd,69.41
2023-10-31T11:51:00,atd,77.79
2023-10-31T11:52:00,atd,78.17
2023-10-31T11:53:00,atd,80.41
2023-10-31T11:54:00,atd,86.55
2023-10-31T11:55:00,atd,82.38
2023-10-31T11:56:00,atd,77.08
2023-10-31T11:57:00,atd,74.51
2023-10-31T11:58:00,atd,97.42
2023-10-31T11:59:00,atd,94.13
2023-10-31T12:00:00,atd,88.39
2023-10-31T12:01:00,atd,84.72
2023-10-31T12:02:00,atd,86.26
2023-10-31T12:03:00,atd,89.97
2023-10-31T12:04:00,atd,97.91
2023-10-31T12:05:00,atd,89.12
2023-10-31T12:06:00,atd,80.27
2023-10-31T12:07:00,atd,88.38
2023-10-31T12:08:00,atd,88.39
2023-10-31T12:09:00,atd,100.44
2023-10-31T12:10:00,atd,77.46
2023-10-31T12:11:00,atd,81.95
2023-10-31T12:12:00,atd,85.36
2023-10-31T12:13:00,atd,77.83
2023-10-31T12:14:00,atd,74.26
2023-10-31T12:15:00,atd,96.95
2023-10-31T12:16:00,atd,88.49
2023-10-31T12:17:00,atd,79.21
2023-10-31T12:18:00,atd,87.04
2023-10-31T12:19:00,atd,81.42
2023-10-31T12:20:00,atd,83.14
2023-10-31T12:21:00,atd,76.54
2023-10-31T12:22:00,atd,81.38
2023-10-31T12:23:00,atd,82.63
2023-10-31T12:24:00,atd,74.56
2023-10-31T12:25:00,atd,80.05
2023-10-31T12:26:00,atd,72.58
2023-10-31T12:27:00,atd,81.35
2023-10-31T12:28:00,atd,98.20
2023-10-31T12:29:00,atd,74.33
2023-10-31T12:30:00,atd,76.05
2023-10-31T12:31:00,atd,85.12
2023-10-31T12:32:00,atd,82.08
2023-10-31T12:33:00,atd,81.00
2023-10-31T12:34:00,atd,73.58
2023-10-31T12:35:00,atd,87.79
2023-10-31T12:36:00,atd,85.70
2023-10-31T12:37:00,atd,80.93
2023-10-31T12:38:00,atd,88.68
2023-10-31T12:39:00,atd,78.17
2023-10-31T12:40:00,atd,98.16
2023-10-31T12:41:00,atd,78.85
2023-10-31T12:42:00,atd,89.14
2023-10-31T12:43:00,atd,76.28
2023-10-31T12:44:00,atd,83.48
2023-10-31T12:45:00,atd,85.26
2023-10-31T12:46:00,atd,82.97
2023-10-31T12:47:00,atd,102.94
2023-10-31T12:48:00,atd,73.00
2023-10-31T12:49:00,atd,82.10
2023-10-31T12:50:00,atd,75.87
2023-10-31T12:51:00,atd,84.53
2023-10-31T12:52:00,atd,82.25
2023-10-31T12:53:00,atd,85.24
2023-10-31T12:54:00,atd,92.05
2023-10-31T12:55:00,atd,90.57
2023-10-31T12:56:00,atd,89.74
2023-10-31T12:57:00,atd,82.60
2023-10-31T12:58:00,atd,87.38
2023-10-31T12:59:00,atd,80.06
2023-10-31T13:00:00,atd,87.62
2023-10-31T13:01:00,atd,79.45
2023-10-31T13:02:00,atd,96.93
2023-10-31T13:03:00,atd,81.84
2023-10-31T13:04:00,atd,78.75
2023-10-31T13:05:00,atd,64.66
2023-10-31T13:06:00,atd,77.58
2023-10-31T13:07:00,atd,65.81
2023-10-31T13:08:00,atd,77.22
2023-10-31T13:09:00,atd,67.49
2023-10-31T13:10:00,atd,95.49
2023-10-31T13:11:00,atd,90.96
2023-10-31T13:12:00,atd,75.25
2023-10-31T13:13:00,atd,85.55
2023-10-31T13:14:00,atd,72.90
2023-10-31T13:15:00,atd,81.71
2023-10-31T13:16:00,atd,78.34
2023-10-31T13:17:00,atd,77.15
2023-10-31T13:18:00,atd,87.31